"TOA5","AWS1","CR1000","7964","CR1000.Std.14","CPU:AWS1_114.CR1","64363","TBL110"
"TIMESTAMP","RECORD","Wind_spd_WVc(1)","Wind_spd_WVc(2)","Air_Temp_Avg","Humidity_Avg","SW_upper_Wm2_Avg","Rain_Tot","Press_Avg","Issui_Tot","Depth_cm","SR50A_Raw","Quality","Ground_Temp_Avg(1)","Ground_Temp_Avg(2)","SW_lower_Wm2_Avg","Albedo_Avg","SWC_per(1)","SWC_per(2)","Period(1)","Period(2)"
"TS","RN","","","","","","","","","","","","","","","","","","",""
"","","WVc","WVc","Avg","Avg","Avg","Tot","Avg","Tot","Smp","Smp","Smp","Avg","Avg","Avg","Avg","Smp","Smp","Smp","Smp"
"2016-12-04 00:00:00",264733,0.119,220,3.876,28.63,0,0,871.7845,0,-2.27,3.183,190,3.752,5.287,0.8835663,0,51.88,59.61,33.76,35.59
"2016-12-04 00:10:00",264734,0.1,156.4,3.421,28.6,0,0,871.7592,0,-1.818,3.18,192,3.76,5.281,0.2237357,0,51.88,59.61,33.76,35.59
"2016-12-04 00:20:00",264735,0.269,135.1,3.536,27.12,0,0,871.637,0,-1.437,3.172,194,3.753,5.265,0.3754209,0,51.94,59.61,33.77,35.59
"2016-12-04 00:30:00",264736,0.276,146,3.624,27.68,0,0,871.6307,0,-1.412,3.172,195,3.761,5.278,0.3261232,0,51.94,59.61,33.77,35.59
"2016-12-04 00:40:00",264737,0.345,153.7,3.929,26.49,0,0,871.5844,0,-2.218,3.18,180,3.754,5.307,0.3526681,0,51.94,59.61,33.77,35.59
"2016-12-04 00:50:00",264738,0.311,133.6,4.299,23.92,0,0,871.4938,0,-2.518,3.18,177,3.753,5.325,0.2123593,0,51.94,59.61,33.77,35.59
"2016-12-04 01:00:00",264739,0.34,163.9,3.901,27.5,0,0,871.5043,0,-1.967,3.178,180,3.76,5.344,0.087219,0,51.88,59.61,33.76,35.59
"2016-12-04 01:10:00",264740,0.169,167.1,4.102,25.23,0,0,871.4284,0,-2.621,3.184,190,3.774,5.342,0.04550556,0,51.88,59.61,33.76,35.59
"2016-12-04 01:20:00",264741,0.278,166.9,3.677,28.89,0,0,871.538,0,-2.773,3.187,195,3.783,5.343,0,0,51.88,59.56,33.76,35.58
"2016-12-04 01:30:00",264742,0.095,165,3.946,25.62,0,0,871.5271,0,-2.718,3.18,190,3.782,5.318,0.2085672,0,51.94,59.56,33.77,35.58
"2016-12-04 01:40:00",264743,0.067,358,4.738,21.83,0,0,871.4831,0,-2.216,3.177,193,3.788,5.332,0.4550556,0,51.94,59.56,33.77,35.58
"2016-12-04 01:50:00",264744,0.122,193.2,3.824,27.76,0,0,871.626,0,-2.823,3.191,200,3.779,5.321,0,0,51.94,59.61,33.77,35.59
"2016-12-04 02:00:00",264745,0.386,182.2,2.453,34.76,0,0,871.3985,0,-1.818,3.183,182,3.709,5.273,0,0,51.94,59.61,33.77,35.59
"2016-12-04 02:10:00",264746,0.202,170.8,3.511,25.55,0,0,871.3819,0,-2.621,3.185,197,3.674,5.265,0.4512635,0,51.94,59.56,33.77,35.58
"2016-12-04 02:20:00",264747,0.183,152.1,3.16,28.15,0,0,871.3787,0,-3.226,3.192,195,3.636,5.265,0.02654491,0,51.88,59.56,33.76,35.58
"2016-12-04 02:30:00",264748,0.237,131.2,3.494,26.55,0,0,871.4163,0,-2.971,3.185,190,3.622,5.265,0.3716288,0,51.94,59.56,33.77,35.58
"2016-12-04 02:40:00",264749,0.271,156.6,3.166,29.88,0,0,871.3773,0,-3.276,3.195,188,3.622,5.266,0.1782301,0,51.88,59.56,33.76,35.58
"2016-12-04 02:50:00",264750,0.21,167.7,2.757,32.37,0,0,871.3528,0,-2.974,3.195,189,3.63,5.268,0,0,51.88,59.56,33.76,35.58
"2016-12-04 03:00:00",264751,0.256,181.4,2.443,33.17,0,0,871.2816,0,-3.074,3.196,178,3.627,5.289,0,0,51.88,59.56,33.76,35.58
"2016-12-04 03:10:00",264752,0.096,200,3.086,28.45,0,0,871.2426,0,-2.42,3.184,178,3.64,5.276,0.4626399,0,51.88,59.56,33.76,35.58
"2016-12-04 03:20:00",264753,0.221,176.3,2.564,32.79,0,0,871.1005,0,-2.271,3.189,195,3.63,5.252,0.09859539,0,51.88,59.56,33.76,35.58
"2016-12-04 03:30:00",264754,0.323,180.4,2.621,29.84,0,0,870.9288,0,-1.867,3.18,188,3.632,5.222,0.2237357,0,51.88,59.56,33.76,35.58
"2016-12-04 03:40:00",264755,0.22,109.9,3.683,25.21,0,0,870.8871,0,-1.865,3.176,187,3.622,5.222,0.7129205,0,51.88,59.56,33.76,35.58
"2016-12-04 03:50:00",264756,0.269,102.9,4.099,24.45,0,0,870.871,0,-2.469,3.181,194,3.621,5.222,0.6939598,0,51.88,59.56,33.76,35.58
"2016-12-04 04:00:00",264757,0.07,165.5,3.153,30.18,0,0,870.8465,0,-1.668,3.181,187,3.62,5.221,0.00379213,0,51.88,59.56,33.76,35.58
"2016-12-04 04:10:00",264758,0.095,100.7,3.568,25.78,0,0,870.678,0,-2.217,3.179,196,3.621,5.226,0.2882019,0,51.88,59.56,33.76,35.58
"2016-12-04 04:20:00",264759,0.073,126,3.815,24.98,0,0,870.6359,0,-1.866,3.177,195,3.615,5.245,0.05308982,0,51.88,59.56,33.76,35.58
"2016-12-04 04:30:00",264760,0.101,83.5,3.902,24.12,0,0,870.7581,0,-1.764,3.175,191,3.605,5.255,0.2351121,0,51.88,59.5,33.76,35.56
"2016-12-04 04:40:00",264761,0.159,155.9,3.52,26.35,0,0,870.6548,0,-2.522,3.191,185,3.569,5.254,0.09480325,0,51.82,59.56,33.75,35.58
"2016-12-04 04:50:00",264762,0.339,175.7,1.995,33.55,0,0,870.6253,0,-1.718,3.186,190,3.553,5.259,0,0,51.88,59.5,33.76,35.56
"2016-12-04 05:00:00",264763,0.336,169.5,2.693,27.9,0,0,870.6253,0,-2.974,3.193,195,3.607,5.252,0.2009829,0,51.88,59.5,33.76,35.56
"2016-12-04 05:10:00",264764,0.441,168.6,2.18,31.08,0,0,870.6253,0,-2.169,3.191,190,3.618,5.22,0,0,51.88,59.5,33.76,35.56
"2016-12-04 05:20:00",264765,0.275,168.2,1.986,31.68,0,0,870.6253,0,-2.22,3.191,186,3.616,5.184,0,0,51.88,59.5,33.76,35.56
"2016-12-04 05:30:00",264766,0.312,161.3,1.411,35.83,0,0,870.6253,0,-1.966,3.193,190,3.571,5.18,0,0,51.88,59.5,33.76,35.56
"2016-12-04 05:40:00",264767,0.513,164,1.544,33.19,0,0,870.6253,0,-2.697,3.195,188,3.534,5.197,0.1706459,0,51.88,59.5,33.76,35.56
"2016-12-04 05:50:00",264768,0.502,169.9,2.022,31.56,0,0,870.6148,0,-2.495,3.194,186,3.534,5.206,0.09101113,0,51.88,59.5,33.76,35.56
"2016-12-04 06:00:00",264769,0.453,165.7,1.916,31.51,0,0,870.6253,0,-2.974,3.195,184,3.534,5.207,0.1516852,0,51.82,59.5,33.75,35.56
"2016-12-04 06:10:00",264770,0.382,153.1,2.443,29.86,0,0,870.6653,0,-2.872,3.197,176,3.534,5.216,0.2768255,0,51.88,59.5,33.76,35.56
"2016-12-04 06:20:00",264771,0.283,171.3,2.349,28.24,0,0,870.6253,0,-1.742,3.179,194,3.527,5.215,0.1137639,0,51.82,59.5,33.75,35.56
"2016-12-04 06:30:00",264772,0.25,172,3.15,24.55,0,0,870.6106,0,-2.37,3.183,195,3.467,5.205,0.492977,0,51.88,59.5,33.76,35.56
"2016-12-04 06:40:00",264773,0.125,197.2,3.995,21.53,0,0,870.6253,0,-2.57,3.183,177,3.448,5.16,1.130055,0,51.88,59.5,33.76,35.56
"2016-12-04 06:50:00",264774,0.063,145.7,4.058,20.52,0.5270178,0,870.6253,0,-2.67,3.183,184,3.453,5.162,0.8949427,0.767,51.88,59.5,33.76,35.56
"2016-12-04 07:00:00",264775,0.073,135.9,3.983,20.6,3.700924,0,870.6085,0,-3.024,3.19,191,3.457,5.161,1.205897,0.342,51.82,59.5,33.75,35.56
"2016-12-04 07:10:00",264776,0.204,171.5,3.85,20.52,11.09491,0,870.5958,0,-2.367,3.179,189,3.452,5.145,2.627946,0.228,51.88,59.5,33.76,35.56
"2016-12-04 07:20:00",264777,0.165,181.8,4.368,20.4,21.64313,0,870.4799,0,-3.376,3.19,188,3.449,5.143,4.751539,0.222,51.88,59.5,33.76,35.56
"2016-12-04 07:30:00",264778,0.187,193.7,4.337,19.89,28.85226,0,870.6211,0,-3.521,3.185,193,3.453,5.121,5.684403,0.196,51.88,59.44,33.76,35.55
"2016-12-04 07:40:00",264779,0.057,168.7,4.865,20.03,35.45571,0,870.5579,0,-3.426,3.191,184,3.45,5.112,6.42766,0.182,51.82,59.44,33.75,35.55
"2016-12-04 07:50:00",264780,0.324,175.5,3.298,28.02,43.23119,0,870.4904,0,-2.723,3.188,184,3.46,5.125,6.814458,0.157,51.88,59.44,33.76,35.55
"2016-12-04 08:00:00",264781,0.185,163,3.379,28.95,62.12124,0,870.5705,0,-2.924,3.19,187,3.46,5.104,11.18678,0.18,51.88,59.44,33.76,35.55
"2016-12-04 08:10:00",264782,0.322,164.2,3.904,26.72,76.31926,0,870.5027,0,-2.518,3.18,180,3.456,5.122,13.95125,0.182,51.88,59.5,33.76,35.56
"2016-12-04 08:20:00",264783,0.111,161.2,5.068,21.21,79.63869,0,870.4711,0,-2.41,3.173,185,3.445,5.129,14.56936,0.183,51.82,59.5,33.75,35.56
"2016-12-04 08:30:00",264784,0.062,77.2,5.665,20.55,100.861,0,870.3826,0,-2.457,3.171,185,3.447,5.159,18.39942,0.183,51.82,59.44,33.75,35.55
"2016-12-04 08:40:00",264785,0.094,88.3,6.08,19.55,117.0999,0,870.3751,0,-1.897,3.164,190,3.444,5.174,20.12099,0.172,51.82,59.44,33.75,35.55
"2016-12-04 08:50:00",264786,0.093,28.79,6.406,18.3,121.3143,0,870.3256,0,-2.457,3.167,190,3.432,5.144,19.92287,0.164,51.88,59.44,33.76,35.55
"2016-12-04 09:00:00",264787,0.061,4.493,6.628,17.07,126.2535,0,870.2821,0,-2.358,3.164,189,3.403,5.107,20.84923,0.165,51.82,59.44,33.75,35.55
"2016-12-04 09:10:00",264788,0.073,66.72,6.695,25.46,145.7827,0,870.4635,0,-2.251,3.165,186,3.376,5.107,24.40325,0.167,51.82,59.44,33.75,35.55
"2016-12-04 09:20:00",264789,0.735,125.7,6.859,23.58,155.696,0,870.5325,0,-2.14,3.161,187,3.351,5.095,25.86547,0.166,51.82,59.44,33.75,35.55
"2016-12-04 09:30:00",264790,0.728,129,6.881,20.53,148.1212,0,870.5303,0,-1.889,3.16,190,3.329,5.091,22.79067,0.154,51.82,59.44,33.75,35.55
"2016-12-04 09:40:00",264791,0.85,134.2,7.106,19.5,165.2349,0,870.4777,0,-3.504,3.174,183,3.317,5.09,26.17958,0.158,51.82,59.44,33.75,35.55
"2016-12-04 09:50:00",264792,0.766,137,7.175,19.57,173.4675,0,870.4671,0,-2.437,3.162,203,3.313,5.089,30.53522,0.176,51.82,59.44,33.75,35.55
"2016-12-04 10:00:00",264793,0.683,121.4,7.802,20.9,203.7292,0,870.285,0,-2.174,3.156,187,3.286,5.065,36.67636,0.18,51.82,59.44,33.75,35.55
"2016-12-04 10:10:00",264794,0.798,126,8.15,19.89,204.2206,0,870.2237,0,-2.325,3.157,185,3.276,5.037,37.78329,0.185,51.77,59.44,33.73,35.55
"2016-12-04 10:20:00",264795,0.725,143.3,8.19,16.55,222.3803,0,869.9644,0,-3.157,3.164,193,3.29,5.019,38.04098,0.171,51.82,59.44,33.75,35.55
"2016-12-04 10:30:00",264796,0.488,137.2,8.56,17.81,224.5025,0,869.939,0,-3.927,3.17,204,3.285,4.99,34.68793,0.154,51.82,59.38,33.75,35.54
"2016-12-04 10:40:00",264797,0.473,124.5,8.5,19.46,223.5071,0,869.9122,0,-1.624,3.147,226,3.233,4.966,33.33161,0.149,51.77,59.38,33.73,35.54
"2016-12-04 10:50:00",264798,0.698,137.4,8.73,18.61,242.0526,0,869.6395,0,-1.862,3.149,229,3.192,4.938,38.17552,0.157,51.82,59.44,33.75,35.55
"2016-12-04 11:00:00",264799,0.852,143,8.61,16.32,195.522,0,869.435,0,-2.156,3.15,205,3.166,4.926,41.22767,0.209,51.77,59.38,33.73,35.54
"2016-12-04 11:10:00",264800,0.887,133.2,9.13,17.68,208.5941,0,869.3065,0,-1.724,3.146,197,3.195,4.919,45.78574,0.223,51.82,59.44,33.75,35.55
"2016-12-04 11:20:00",264801,0.851,137.9,9.21,17.47,305.3134,0,869.0811,0,-1.54,3.143,197,3.243,4.913,46.01657,0.15,51.77,59.38,33.73,35.54
"2016-12-04 11:30:00",264802,0.958,140.6,8.87,16.75,248.8816,0,868.7314,0,-1.397,3.144,203,3.245,4.911,34.43561,0.138,51.77,59.44,33.73,35.55
"2016-12-04 11:40:00",264803,0.598,140.9,9.23,18.36,260.5309,0,868.5988,0,-1.919,3.146,208,3.257,4.91,43.19323,0.165,51.77,59.44,33.73,35.55
"2016-12-04 11:50:00",264804,0.539,134.9,9.33,18.2,250.8388,0,868.3397,0,-1.057,3.138,268,3.265,4.892,38.6723,0.154,51.77,59.38,33.73,35.54
"2016-12-04 12:00:00",264805,0.634,143.8,9.42,17.84,313.8484,0,868.0422,0,-1.422,3.139,257,3.241,4.882,44.3408,0.141,51.77,59.38,33.73,35.54
"2016-12-04 12:10:00",264806,0.134,110.5,9.66,19.48,339.0472,0,867.8796,0,-1.259,3.139,291,3.268,4.862,41.14747,0.122,51.82,59.38,33.75,35.54
"2016-12-04 12:20:00",264807,0.397,340.7,9.01,26.42,393.3105,0,867.8261,0,-0.909,3.142,273,3.221,4.821,44.89696,0.114,51.82,59.38,33.75,35.54
"2016-12-04 12:30:00",264808,0.384,308.1,8.09,39,311.9277,0,867.715,0,-3.924,3.173,174,3.167,4.807,37.74434,0.121,51.82,59.38,33.75,35.54
"2016-12-04 12:40:00",264809,0.307,326,8.04,42.49,369.96,0,867.3859,0,-2.189,3.154,209,3.145,4.8,45.99775,0.125,51.82,59.38,33.75,35.54
"2016-12-04 12:50:00",264810,0.376,308.3,8.21,39.4,260.3491,0,867.3157,0,-2.852,3.162,203,3.14,4.824,25.66933,0.099,51.82,59.38,33.75,35.54
"2016-12-04 13:00:00",264811,0.435,349.3,8.17,37.18,224.6025,0,867.1487,0,-1.862,3.152,204,3.139,4.867,32.12063,0.144,51.82,59.38,33.75,35.54
"2016-12-04 13:10:00",264812,0.587,65.55,8.39,34.87,198.4747,0,866.9822,0,-2.515,3.156,195,3.139,4.867,27.10116,0.136,51.82,59.38,33.75,35.54
"2016-12-04 13:20:00",264813,0.387,355.8,8.46,37.55,151.4648,0,867.0749,0,-3.714,3.17,194,3.129,4.836,18.27074,0.12,51.82,59.38,33.75,35.54
"2016-12-04 13:30:00",264814,0.31,303.4,7.745,41.83,166.8309,0,866.9611,0,-3.411,3.168,195,3.062,4.804,18.62305,0.112,51.82,59.38,33.75,35.54
"2016-12-04 13:40:00",264815,0.232,327.2,7.849,43.07,156.3171,0,866.7042,0,-3.718,3.172,189,3.056,4.81,18.80867,0.12,51.82,59.38,33.75,35.54
"2016-12-04 13:50:00",264816,0.384,346.1,7.668,48.15,169.5105,0,866.559,0,-3.671,3.173,192,3.056,4.823,20.80508,0.123,51.77,59.38,33.73,35.54
"2016-12-04 14:00:00",264817,0.238,325.7,7.424,51.3,145.3317,0,866.5412,0,-2.811,3.165,198,3.066,4.778,17.3805,0.12,51.77,59.38,33.73,35.54
"2016-12-04 14:10:00",264818,0.162,337,7.461,55.94,134.1167,0,866.5839,0,-2.816,3.165,201,3.121,4.751,15.86923,0.118,51.82,59.38,33.75,35.54
"2016-12-04 14:20:00",264819,0.233,6.571,7.289,60.63,107.6073,0,866.8222,0,-3.053,3.169,205,3.163,4.773,12.19877,0.113,51.82,59.38,33.75,35.54
"2016-12-04 14:30:00",264820,0.036,16,7.009,63.83,81.60775,0,866.8887,0,-3.748,3.178,193,3.213,4.805,8.554648,0.104,51.82,59.38,33.75,35.54
"2016-12-04 14:40:00",264821,0.295,39.48,6.79,66,44.10891,0,867.1808,0,-3.962,3.181,197,3.257,4.824,3.932784,0.089,51.82,59.38,33.75,35.54
"2016-12-04 14:50:00",264822,0.454,61.24,6.704,66.97,44.05343,0,867.3655,0,-3.799,3.18,188,3.283,4.873,4.512831,0.102,51.88,59.38,33.76,35.54
"2016-12-04 15:00:00",264823,0.316,125.7,6.615,67.6,34.39976,0,867.2516,0,-2.413,3.166,230,3.298,4.893,3.474806,0.101,51.82,59.38,33.75,35.54
"2016-12-04 15:10:00",264824,0.435,130.8,6.536,68.2,31.13502,0,867.4042,0,-5.353,3.196,195,3.301,4.864,3.29304,0.106,51.88,59.38,33.76,35.54
"2016-12-04 15:20:00",264825,0.815,144.4,6.403,68.05,32.32242,0,867.3602,0,-4.722,3.19,182,3.387,4.834,3.880463,0.12,51.88,59.38,33.76,35.54
"2016-12-04 15:30:00",264826,0.856,172.8,6.406,68.16,30.23561,0,867.1854,0,-4.52,3.188,184,3.442,4.838,3.759217,0.124,51.82,59.38,33.75,35.54
"2016-12-04 15:40:00",264827,0.519,142.1,6.391,68.35,17.58801,0,867.3856,0,-4.167,3.185,193,3.437,4.843,2.004667,0.113,51.82,59.38,33.75,35.54
"2016-12-04 15:50:00",264828,0.341,172.1,6.344,68.94,11.76727,0,867.3624,0,-4.824,3.191,181,3.41,4.828,1.129283,0.092,51.88,59.38,33.76,35.54
"2016-12-04 16:00:00",264829,0.183,89.5,6.351,68.65,9.483774,0,867.3729,0,-4.723,3.19,191,3.444,4.809,0.9966493,0.103,51.82,59.38,33.75,35.54
"2016-12-04 16:10:00",264830,0.673,155.6,6.482,68.61,6.65397,0,867.4066,0,-2.799,3.17,222,3.525,4.822,0.82612,0.125,51.88,59.38,33.76,35.54
"2016-12-04 16:20:00",264831,0.445,142.2,6.518,69.35,2.346379,0,867.4066,0,-3.255,3.175,228,3.529,4.825,0.04926403,0.017,51.88,59.38,33.76,35.54
"2016-12-04 16:30:00",264832,0.352,196.7,6.501,69.66,0.5423791,0,867.3856,0,-1.51,3.158,277,3.519,4.825,0,0,51.82,59.38,33.75,35.54
"2016-12-04 16:40:00",264833,0.64,167.9,6.404,70.39,0,0,867.1559,0,-3.812,3.181,201,3.491,4.826,0,0,51.88,59.38,33.76,35.54
"2016-12-04 16:50:00",264834,0.365,180.6,6.439,70.52,0,0,867.1539,0,-4.217,3.185,200,3.555,4.826,0,0,51.82,59.38,33.75,35.54
"2016-12-04 17:00:00",264835,0.684,154,6.397,71.25,0,0,867.0212,0,-3.889,3.182,194,3.614,4.826,0,0,51.88,59.38,33.76,35.54
"2016-12-04 17:10:00",264836,0.164,67.38,6.356,71.77,0,0,866.7768,0,-3.054,3.174,211,3.615,4.826,0,0,51.88,59.38,33.76,35.54
"2016-12-04 17:20:00",264837,0.02,24.12,6.36,71.95,0,0,866.6484,0,-4.167,3.185,205,3.613,4.826,0,0,51.82,59.38,33.75,35.54
"2016-12-04 17:30:00",264838,0.531,167.5,6.364,71.84,0,0,866.5009,0,-3.993,3.184,200,3.584,4.826,0.04547449,0,51.88,59.38,33.76,35.54
"2016-12-04 17:40:00",264839,0.607,159.1,6.389,71.6,0,0,866.3914,0,-4.021,3.183,192,3.575,4.832,0,0,51.88,59.38,33.76,35.54
"2016-12-04 17:50:00",264840,0.501,154.1,6.389,71.78,0,0,866.1766,0,-3.979,3.183,189,3.617,4.845,0,0,51.88,59.38,33.76,35.54
"2016-12-04 18:00:00",264841,0.66,133.6,6.31,72.76,0,0,866.1386,0,-2.772,3.172,220,3.719,4.855,0,0,51.88,59.38,33.76,35.54
"2016-12-04 18:10:00",264842,0.937,147,5.897,74.31,0,0,865.7469,0,-3.16,3.179,215,3.735,4.862,0,0,51.82,59.38,33.75,35.54
"2016-12-04 18:20:00",264843,0.728,140.2,5.418,76.4,0,0,865.3762,0,-2.535,3.175,277,3.72,4.869,0,0,51.88,59.38,33.76,35.54
"2016-12-04 18:30:00",264844,0.482,130.8,5.181,77.59,0,0,865.1487,0,-3.355,3.184,196,3.737,4.881,0,0,51.82,59.38,33.75,35.54
"2016-12-04 18:40:00",264845,0.489,158.2,5,78.29,0,0,865.0118,0,-3.239,3.184,199,3.745,4.9,0,0,51.88,59.38,33.76,35.54
"2016-12-04 18:50:00",264846,0.591,161.7,5.104,75.26,0,0,865.0497,0,-3.039,3.18,185,3.746,4.911,0.5231256,0,51.82,59.38,33.75,35.54
"2016-12-04 19:00:00",264847,0.43,153.4,5.387,72.63,0,0,864.9781,0,-3.014,3.179,192,3.752,4.915,0.6179019,0,51.88,59.38,33.76,35.54
"2016-12-04 19:10:00",264848,0.268,121.6,5.348,71.99,0,0,864.8864,0,-3.241,3.181,196,3.811,4.916,0.3070571,0,51.88,59.38,33.76,35.54
"2016-12-04 19:20:00",264849,0.209,338.8,5.374,71.22,0,0,864.9019,0,-3.317,3.182,196,3.859,4.916,0.1781692,0,51.82,59.38,33.75,35.54
"2016-12-04 19:30:00",264850,0.449,299.4,5.406,71.66,0,0,865.1063,0,-2.964,3.179,192,3.884,4.916,0.06823505,0,51.82,59.38,33.75,35.54
"2016-12-04 19:40:00",264851,0.19,128,5.294,73.29,0,0,865.1804,0,-3.065,3.18,201,3.878,4.916,0,0,51.88,59.38,33.76,35.54
"2016-12-04 19:50:00",264852,0.585,331.3,5.099,76.48,0,0,865.1884,0,-2.714,3.179,197,3.878,4.916,0.003790837,0,51.88,59.38,33.76,35.54
"2016-12-04 20:00:00",264853,0.433,343.8,4.706,81.2,0,0,865.2694,0,-3.574,3.19,202,3.878,4.916,0.003790837,0,51.88,59.38,33.76,35.54
"2016-12-04 20:10:00",264854,0.273,322.2,4.485,84.3,0,0,865.3937,0,-3.272,3.187,195,3.878,4.916,0.2501952,0,51.82,59.38,33.75,35.54
"2016-12-04 20:20:00",264855,0.142,167,4.247,88.5,0,0,865.3909,0,-3.877,3.195,212,3.878,4.916,0.1326793,0,51.88,59.44,33.76,35.55
"2016-12-04 20:30:00",264856,0.343,159.2,4.069,90.9,0,0,865.204,0,-2.166,3.179,200,3.878,4.916,0.3487569,0,51.82,59.38,33.75,35.54
"2016-12-04 20:40:00",264857,0.314,149.9,3.824,93,0,0,864.8242,0,-2.819,3.186,198,3.878,4.916,0.2729402,0,51.82,59.38,33.75,35.54
"2016-12-04 20:50:00",264858,0.011,75.88,3.701,95.9,0,0,864.5565,0,-2.016,3.179,214,3.878,4.916,0.05307171,0,51.82,59.38,33.75,35.54
"2016-12-04 21:00:00",264859,0.502,14.47,3.768,93.1,0,0,864.2262,0,-3.197,3.189,225,3.878,4.916,0.5913705,0,51.88,59.38,33.76,35.54
"2016-12-04 21:10:00",264860,0.662,353.8,3.903,88.7,0,0,863.9291,0,-2.441,3.181,238,3.878,4.916,0.7922848,0,51.88,59.38,33.76,35.54
"2016-12-04 21:20:00",264861,0.936,87.3,3.86,89,0,0,863.4319,0,-2.921,3.187,235,3.878,4.916,0.6747689,0,51.88,59.38,33.76,35.54
"2016-12-04 21:30:00",264862,0.713,91.6,3.931,89.4,0,0,863.2634,0,-3.273,3.19,209,3.878,4.916,0.7581673,0,51.88,59.38,33.76,35.54
"2016-12-04 21:40:00",264863,0.223,257.3,4.074,90.2,0,0,863.4067,0,-3.373,3.189,212,3.879,4.916,0.8681015,0,51.88,59.44,33.76,35.55
"2016-12-04 21:50:00",264864,0.308,345.6,4.276,90.5,0,0,863.2549,0,-3.575,3.192,211,3.899,4.916,0.7013047,0,51.88,59.38,33.76,35.54
"2016-12-04 22:00:00",264865,0.238,59.61,3.984,95.3,0,0,862.9073,0.5,-3.223,3.19,222,3.984,4.916,0.1288884,0,51.88,59.38,33.76,35.54
"2016-12-04 22:10:00",264866,0.361,116.1,4.066,96.3,0,0,862.526,0,-1.584,3.171,232,3.995,4.916,0.394247,0,51.88,59.38,33.76,35.54
"2016-12-04 22:20:00",264867,0.252,122.7,4.603,92,0.05111115,0,862.5091,0,-3.622,3.188,193,3.972,4.916,0.9439182,0.82,51.88,59.38,33.76,35.54
"2016-12-04 22:30:00",264868,0.434,1.185,5.097,87.3,0,0,862.5576,0,-5.664,3.205,186,3.965,4.916,1.216858,0,51.88,59.38,33.76,35.54
"2016-12-04 22:40:00",264869,0.477,131.7,5.066,89.1,0,0,862.429,0,-5.287,3.204,186,3.965,4.916,0.6633964,0,51.94,59.38,33.77,35.54
"2016-12-04 22:50:00",264870,0.205,13.2,5.009,90.1,0,0,862.4396,0,-3.32,3.185,226,3.965,4.918,0.5610438,0,51.94,59.38,33.77,35.54
"2016-12-04 23:00:00",264871,0.166,327.7,4.722,93.1,0,0,862.4796,0,-0.953,3.164,378,3.965,4.922,0.09477091,0,51.94,59.38,33.77,35.54
"2016-12-04 23:10:00",264872,0.311,343.8,4.299,96,0,0,862.6566,0,-2.97,3.185,287,3.965,4.919,0,0,51.94,59.44,33.77,35.55
"2016-12-04 23:20:00",264873,0.374,100.7,4.34,98.8,0,0,862.6693,0,-3.825,3.192,259,3.958,4.936,0.02653586,0,51.99,59.44,33.79,35.55
"2016-12-04 23:30:00",264874,0.869,108.6,4.781,98.7,0.06290603,0,862.5807,0,-3.622,3.187,274,3.947,4.945,0.670978,0.948,51.94,59.44,33.77,35.55
"2016-12-04 23:40:00",264875,0.834,123,5.1,94.3,0,0,862.448,0,-5.136,3.202,221,4.001,5.006,0.5648346,0,51.99,59.44,33.79,35.55
"2016-12-04 23:50:00",264876,0.422,92.9,5.045,94.9,0,0,862.4417,0,-2.865,3.179,234,4.047,5.046,0.4207829,0,52.05,59.44,33.8,35.55
